TimeCEST,TemperatureF,Dew PointF,Humidity,Sea Level PressureIn,VisibilityMPH,Wind Direction,Wind SpeedMPH,Gust SpeedMPH,PrecipitationIn,Events,Conditions,WindDirDegrees,DateUTC
12:00 AM,53.6,46.4,77,29.95,4.3,SW,3.5,-,N/A,,Overcast,220,2013-10-09 22:00:00
1:00 AM,53.6,46.4,77,29.92,5.0,SW,3.5,-,N/A,,Unknown,220,2013-10-09 23:00:00
2:00 AM,53.6,46.4,77,29.89,5.0,South,3.5,-,N/A,,Unknown,180,2013-10-10 00:00:00
3:00 AM,53.6,46.4,77,29.89,5.0,SSW,4.6,-,N/A,,Unknown,210,2013-10-10 01:00:00
4:00 AM,53.6,46.4,77,29.86,5.0,SSW,5.8,-,N/A,,Unknown,210,2013-10-10 02:00:00
5:00 AM,53.6,46.4,77,29.83,5.0,Calm,Calm,-,N/A,,Unknown,0,2013-10-10 03:00:00
6:00 AM,53.6,46.4,77,29.83,5.0,Variable,2.3,-,N/A,,Unknown,0,2013-10-10 04:00:00
7:00 AM,53.6,46.4,77,29.80,5.0,SSW,5.8,-,N/A,,Unknown,200,2013-10-10 05:00:00
8:00 AM,53.6,46.4,77,29.80,5.0,SE,3.5,-,N/A,,Unknown,130,2013-10-10 06:00:00
9:00 AM,55.4,46.4,72,29.80,5.0,SE,4.6,-,N/A,,Unknown,130,2013-10-10 07:00:00
10:00 AM,55.4,48.2,77,29.77,5.0,South,5.8,-,N/A,,Unknown,170,2013-10-10 08:00:00
11:00 AM,59.0,46.4,63,29.77,6.2,South,10.4,-,N/A,,Mostly Cloudy,180,2013-10-10 09:00:00
12:00 PM,60.8,46.4,59,29.77,6.2,South,6.9,-,N/A,,Mostly Cloudy,170,2013-10-10 10:00:00
1:00 PM,62.6,46.4,55,29.74,6.2,South,11.5,-,N/A,,Mostly Cloudy,180,2013-10-10 11:00:00
2:00 PM,64.4,46.4,52,29.74,6.2,South,9.2,-,N/A,,Mostly Cloudy,180,2013-10-10 12:00:00
3:00 PM,64.4,48.2,56,29.71,6.2,South,8.1,-,N/A,,Mostly Cloudy,170,2013-10-10 13:00:00
4:00 PM,62.6,48.2,59,29.71,6.2,South,10.4,-,N/A,,Mostly Cloudy,170,2013-10-10 14:00:00
5:00 PM,60.8,50.0,68,29.71,5.0,SE,13.8,24.2,N/A,,Mostly Cloudy,140,2013-10-10 15:00:00
6:00 PM,59.0,50.0,72,29.71,3.7,SE,12.7,-,N/A,,Overcast,130,2013-10-10 16:00:00
7:00 PM,57.2,50.0,77,29.71,3.1,ESE,9.2,-,N/A,,Overcast,120,2013-10-10 17:00:00
8:00 PM,57.2,51.8,82,29.74,3.1,ESE,13.8,-,N/A,,Overcast,120,2013-10-10 18:00:00
9:00 PM,57.2,50.0,77,29.74,4.3,ESE,15.0,-,N/A,,Overcast,110,2013-10-10 19:00:00
10:00 PM,57.2,50.0,77,29.74,4.3,ESE,13.8,-,N/A,,Overcast,120,2013-10-10 20:00:00
11:00 PM,57.2,50.0,77,29.74,3.7,ESE,15.0,-,N/A,,Overcast,120,2013-10-10 21:00:00